Location: Paderno d�Adda
(45.6667°N, 9.4333°E)
Time: 05:58:51
(UTC+00:00)

CENTAUR R/B - Pass Details

Date: 18 January 2021
Orbit: 742 x 1446 km, 63.5° (Epoch: 02 March)

Event Time Altitude Azimuth Distance (km) Brightness Sun altitude
Rises 05:13:37 0° 152° (SSE) 3,355 5.9 -17.7°
Reaches altitude 10° 05:17:52 10° 120° (ESE) 2,565 5.9 -17.0°
Maximum altitude 05:19:45 12° 101° (E) 2,524 6.0 -16.7°
Drops below altitude 10° 05:21:41 10° 83° (E) 2,710 5.9 -16.4°
Sets 05:26:34 0° 53° (NE) 3,858 6.2 -15.5°
